Flag for United Kingdom Weather past 2 weeks in Guildford, England, United Kingdom

Now
54 °F

Low clouds.


Feels Like: 53 °F
Forecast: 54 / 73 °F
Wind: 3 mph from Northwest

Location: Odiham

Current Time: Sep 2, 2014 at 5:55:36 AM

Latest Report: Sep 2, 2014 at 4:50 AM


Visibility: N/A

Pressure: 30.18 "Hg

Humidity: 94%

Dew point: 52 °F

Location of GuildfordLocation

Historic Weather in Guildford — Graph

°F

Guildford temperature yesterday

Maximum temperature yesterday: 66 °F (at 3:50 PM)
Minimum temperature yesterday: 52 °F (at 2:50 AM)
Average temperature yesterday: 60 °F

Past Weeks' High & Low Weather Summary

 TemperatureHumidityPressure
High70 °F (Aug 28, 1:50 PM)100% (Aug 21, 9:50 AM)30.18 "Hg (Aug 21, 9:50 AM)
Low41 °F (Aug 24, 5:50 AM)39% (Aug 20, 2:50 PM)29.53 "Hg (Aug 26, 2:50 AM)
Average58 °F78%29.94 "Hg
* Reported Aug 18 3:50 AM — Sep 2 3:50 AM, Guildford, Weather by CustomWeather, © 2014

Note: Actual official high and low records may vary slightly from our data, if they occured in-between our weather recording intervals... More about our weather records

Advertising

Guildford weather history for previous 24 hours

 ConditionsComfort  
Time TempWeatherWind HumidityBarometerVisibility
3:50 AM
Sep 2
54 °FPassing clouds.6 mph94%30.18 "HgN/A
2:50 AM55 °FPassing clouds.3 mph88%30.18 "HgN/A
1:50 AM55 °FPassing clouds.6 mph88%30.18 "HgN/A
12:50 AM57 °FClear.3 mph100%30.18 "Hg10 mi
11:50 PM
Sep 1
59 °FOvercast.6 mph94%30.15 "HgN/A
10:50 PM61 °FPassing clouds.6 mph94%30.15 "HgN/A
9:50 PM63 °FPartly cloudy.7 mph94%30.15 "HgN/A
8:50 PM63 °FLight rain. Passing clouds.2 mph100%30.12 "HgN/A
7:50 PM63 °FBroken clouds.3 mph100%30.12 "HgN/A
7:35 PM63 °FBroken clouds.8 mph100%30.12 "HgN/A
6:55 PM64 °FDrizzle. Broken clouds.7 mph94%30.09 "Hg3 mi
5:50 PM64 °FBroken clouds.7 mph94%30.12 "HgN/A
4:59 PM64 °FDrizzle. Partly sunny.8 mph94%30.12 "Hg2 mi
4:50 PM64 °FDrizzle. Mostly cloudy.10 mph94%30.12 "Hg3 mi
3:50 PM66 °FPartly sunny.13 mph83%30.12 "HgN/A
2:50 PM64 °FPartly sunny.12 mph88%30.12 "HgN/A
2:29 PM63 °FPartly sunny.13 mph94%30.12 "HgN/A
1:50 PM63 °FDrizzle. Partly sunny.12 mph94%30.12 "Hg3 mi
12:50 PM63 °FDrizzle. Low clouds.12 mph88%30.12 "HgN/A
11:50 AM61 °FDrizzle. Partly sunny.10 mph94%30.12 "HgN/A
10:50 AM61 °FDrizzle. Partly sunny.10 mph94%30.12 "HgN/A
9:50 AM59 °FDrizzle. Partly sunny.12 mph94%30.15 "Hg3 mi
8:50 AM59 °FPartly sunny.8 mph88%30.12 "HgN/A
8:12 AM57 °FPartly sunny.9 mph94%30.12 "HgN/A
7:50 AM57 °FPartly sunny.9 mph94%30.12 "Hg6 mi
6:50 AM55 °FPartly cloudy.7 mph94%30.12 "HgN/A
5:50 AM55 °FPassing clouds.6 mph94%30.12 "HgN/A
Weather by CustomWeather, © 2014

See weather overviewHow to use our weather pages